Time,TemperatureF,DewpointF,PressureIn,WindDirection,WindDirectionDegrees,WindSpeedMPH,WindSpeedGustMPH,Humidity,HourlyPrecipIn,Conditions,Clouds,dailyrainin,SolarRadiationWatts/m^2,SoftwareType,DateUTC
2013-05-07 00:02:00,52.0,50.0,-100.00,West,272,12.0,15.0,93,0.00,,,0.00,0.000000,,2013-05-07 07:02:00,
2013-05-07 00:11:00,52.0,50.0,-100.00,West,272,12.0,15.0,93,0.00,,,0.00,0.000000,,2013-05-07 07:11:00,
2013-05-07 00:22:00,52.0,50.0,-100.00,West,272,12.0,15.0,93,0.00,,,0.00,0.000000,,2013-05-07 07:22:00,
2013-05-07 00:52:00,52.0,50.0,-100.00,West,269,12.0,16.0,92,0.00,,,0.00,0.000000,,2013-05-07 07:52:00,
2013-05-07 01:02:00,52.0,50.0,-100.00,West,269,12.0,16.0,92,0.00,,,0.00,0.000000,,2013-05-07 08:02:00,
2013-05-07 01:11:00,52.0,50.0,-100.00,West,269,12.0,16.0,92,0.00,,,0.00,0.000000,,2013-05-07 08:11:00,
2013-05-07 01:21:00,52.0,50.0,-100.00,West,269,12.0,16.0,92,0.00,,,0.00,0.000000,,2013-05-07 08:21:00,
2013-05-07 01:52:00,52.0,50.0,-100.00,West,266,9.0,14.0,93,0.00,,,0.00,0.000000,,2013-05-07 08:52:00,
2013-05-07 02:01:00,52.0,50.0,-100.00,West,266,9.0,14.0,93,0.00,,,0.00,0.000000,,2013-05-07 09:01:00,
2013-05-07 02:11:00,52.0,50.0,-100.00,West,266,9.0,14.0,93,0.00,,,0.00,0.000000,,2013-05-07 09:11:00,
2013-05-07 02:22:00,52.0,50.0,-100.00,West,266,9.0,14.0,93,0.00,,,0.00,0.000000,,2013-05-07 09:22:00,
2013-05-07 02:52:00,51.0,47.0,-100.00,West,265,9.0,17.0,87,0.00,,,0.00,0.000000,,2013-05-07 09:52:00,
2013-05-07 03:02:00,51.0,47.0,-100.00,West,265,9.0,17.0,87,0.00,,,0.00,0.000000,,2013-05-07 10:02:00,
2013-05-07 03:12:00,51.0,47.0,-100.00,West,265,9.0,17.0,87,0.00,,,0.00,0.000000,,2013-05-07 10:12:00,
2013-05-07 03:22:00,51.0,47.0,-100.00,West,265,9.0,17.0,87,0.00,,,0.00,0.000000,,2013-05-07 10:22:00,
2013-05-07 03:52:00,51.0,48.0,-100.00,West,264,8.0,14.0,88,0.00,,,0.00,0.000000,,2013-05-07 10:52:00,
2013-05-07 04:02:00,51.0,48.0,-100.00,West,264,8.0,14.0,88,0.00,,,0.00,0.000000,,2013-05-07 11:02:00,
2013-05-07 04:11:00,51.0,48.0,-100.00,West,264,8.0,14.0,88,0.00,,,0.00,0.000000,,2013-05-07 11:11:00,
2013-05-07 04:21:00,51.0,48.0,-100.00,West,264,8.0,14.0,88,0.00,,,0.00,0.000000,,2013-05-07 11:21:00,
2013-05-07 04:52:00,51.0,50.0,-100.00,West,269,10.0,14.0,96,0.00,,,0.00,0.000000,,2013-05-07 11:52:00,
2013-05-07 05:02:00,51.0,50.0,-100.00,West,269,10.0,14.0,96,0.00,,,0.00,0.000000,,2013-05-07 12:02:00,
2013-05-07 05:11:00,51.0,50.0,-100.00,West,269,10.0,14.0,96,0.00,,,0.00,0.000000,,2013-05-07 12:11:00,
2013-05-07 05:21:00,51.0,50.0,-100.00,West,269,10.0,14.0,96,0.00,,,0.00,0.000000,,2013-05-07 12:21:00,
2013-05-07 05:52:00,51.0,50.0,-100.00,West,265,11.0,16.0,97,0.00,,,0.00,0.000000,,2013-05-07 12:52:00,
2013-05-07 06:02:00,51.0,50.0,-100.00,West,265,11.0,16.0,97,0.00,,,0.00,0.000000,,2013-05-07 13:02:00,
2013-05-07 06:11:00,51.0,50.0,-100.00,West,265,11.0,16.0,97,0.00,,,0.00,0.000000,,2013-05-07 13:11:00,
2013-05-07 06:21:00,51.0,50.0,-100.00,West,265,11.0,16.0,97,0.00,,,0.00,0.000000,,2013-05-07 13:21:00,
2013-05-07 06:52:00,51.0,51.0,-100.00,West,268,10.0,15.0,100,0.00,,,0.00,2.000000,,2013-05-07 13:52:00,
2013-05-07 07:02:00,51.0,51.0,-100.00,West,268,10.0,15.0,100,0.00,,,0.00,2.000000,,2013-05-07 14:02:00,
2013-05-07 07:11:00,51.0,51.0,-100.00,West,268,10.0,15.0,100,0.00,,,0.00,2.000000,,2013-05-07 14:11:00,
2013-05-07 07:21:00,51.0,51.0,-100.00,West,268,10.0,15.0,100,0.00,,,0.00,2.000000,,2013-05-07 14:21:00,
2013-05-07 07:52:00,52.0,51.0,-100.00,West,263,8.0,13.0,97,0.00,,,-99.99,41.000000,,2013-05-07 14:52:00,
2013-05-07 08:01:00,52.0,51.0,-100.00,West,263,8.0,13.0,97,0.00,,,-99.99,41.000000,,2013-05-07 15:01:00,
2013-05-07 08:12:00,52.0,51.0,-100.00,West,263,8.0,13.0,97,0.00,,,-99.99,41.000000,,2013-05-07 15:12:00,
2013-05-07 08:21:00,52.0,51.0,-100.00,West,263,8.0,13.0,97,0.00,,,-99.99,41.000000,,2013-05-07 15:21:00,
2013-05-07 08:53:00,53.0,51.0,-100.00,West,272,13.0,17.0,92,0.00,,,0.00,124.000000,,2013-05-07 15:53:00,
2013-05-07 09:03:00,53.0,51.0,-100.00,West,272,13.0,17.0,92,0.00,,,0.00,124.000000,,2013-05-07 16:03:00,
2013-05-07 09:12:00,53.0,51.0,-100.00,West,272,13.0,17.0,92,0.00,,,0.00,124.000000,,2013-05-07 16:12:00,
2013-05-07 09:22:00,53.0,51.0,-100.00,West,272,13.0,17.0,92,0.00,,,0.00,124.000000,,2013-05-07 16:22:00,
2013-05-07 11:52:00,61.0,49.0,-100.00,West,278,15.0,22.0,64,-99.99,,,0.00,466.000000,,2013-05-07 18:52:00,
2013-05-07 12:02:00,61.0,49.0,-100.00,West,278,15.0,22.0,64,-99.99,,,0.00,466.000000,,2013-05-07 19:02:00,
2013-05-07 12:11:00,61.0,49.0,-100.00,West,278,15.0,22.0,64,-99.99,,,0.00,466.000000,,2013-05-07 19:11:00,
2013-05-07 12:21:00,61.0,49.0,-100.00,West,278,15.0,22.0,64,-99.99,,,0.00,466.000000,,2013-05-07 19:21:00,
2013-05-07 12:52:00,65.0,48.0,-100.00,West,279,12.0,18.0,55,0.00,,,0.00,657.000000,,2013-05-07 19:52:00,
2013-05-07 13:02:00,65.0,48.0,-100.00,West,279,12.0,18.0,55,0.00,,,0.00,657.000000,,2013-05-07 20:02:00,
2013-05-07 13:11:00,65.0,48.0,-100.00,West,279,12.0,18.0,55,0.00,,,0.00,657.000000,,2013-05-07 20:11:00,
2013-05-07 13:21:00,65.0,48.0,-100.00,West,279,12.0,18.0,55,0.00,,,0.00,657.000000,,2013-05-07 20:21:00,
2013-05-07 13:52:00,65.0,48.0,-100.00,West,277,14.0,21.0,54,0.00,,,0.00,695.000000,,2013-05-07 20:52:00,
2013-05-07 14:01:00,65.0,48.0,-100.00,West,277,14.0,21.0,54,0.00,,,0.00,695.000000,,2013-05-07 21:01:00,
2013-05-07 14:11:00,65.0,48.0,-100.00,West,277,14.0,21.0,54,0.00,,,0.00,695.000000,,2013-05-07 21:11:00,
2013-05-07 14:21:00,65.0,48.0,-100.00,West,277,14.0,21.0,54,0.00,,,0.00,695.000000,,2013-05-07 21:21:00,
2013-05-07 14:53:00,67.0,47.0,-100.00,West,279,16.0,24.0,49,0.00,,,0.00,869.000000,,2013-05-07 21:53:00,
2013-05-07 15:02:00,67.0,47.0,-100.00,West,279,16.0,24.0,49,0.00,,,0.00,869.000000,,2013-05-07 22:02:00,
2013-05-07 15:13:00,67.0,47.0,-100.00,West,279,16.0,24.0,49,0.00,,,0.00,869.000000,,2013-05-07 22:13:00,
2013-05-07 15:22:00,67.0,47.0,-100.00,West,279,16.0,24.0,49,0.00,,,0.00,869.000000,,2013-05-07 22:22:00,
2013-05-07 15:52:00,66.0,45.0,-100.00,West,270,13.0,25.0,46,0.00,,,0.00,702.000000,,2013-05-07 22:52:00,
2013-05-07 16:02:00,66.0,45.0,-100.00,West,270,13.0,25.0,46,0.00,,,0.00,702.000000,,2013-05-07 23:02:00,
2013-05-07 16:12:00,66.0,45.0,-100.00,West,270,13.0,25.0,46,0.00,,,0.00,702.000000,,2013-05-07 23:12:00,
2013-05-07 16:21:00,66.0,45.0,-100.00,West,270,13.0,25.0,46,0.00,,,0.00,702.000000,,2013-05-07 23:21:00,
2013-05-07 16:52:00,68.0,43.0,-100.00,West,275,15.0,25.0,40,0.00,,,0.00,723.000000,,2013-05-07 23:52:00,
2013-05-07 17:01:00,68.0,43.0,-100.00,West,275,15.0,25.0,40,0.00,,,0.00,723.000000,,2013-05-08 00:01:00,
2013-05-07 17:11:00,68.0,43.0,-100.00,West,275,15.0,25.0,40,0.00,,,0.00,723.000000,,2013-05-08 00:11:00,
2013-05-07 17:21:00,68.0,43.0,-100.00,West,275,15.0,25.0,40,0.00,,,0.00,723.000000,,2013-05-08 00:21:00,
2013-05-07 17:52:00,66.0,41.0,-100.00,West,274,13.0,24.0,40,0.00,,,0.00,472.000000,,2013-05-08 00:52:00,
2013-05-07 18:02:00,66.0,41.0,-100.00,West,274,13.0,24.0,40,0.00,,,0.00,472.000000,,2013-05-08 01:02:00,
2013-05-07 18:11:00,66.0,41.0,-100.00,West,274,13.0,24.0,40,0.00,,,0.00,472.000000,,2013-05-08 01:11:00,
2013-05-07 18:21:00,66.0,41.0,-100.00,West,274,13.0,24.0,40,0.00,,,0.00,472.000000,,2013-05-08 01:21:00,
2013-05-07 18:52:00,64.0,41.0,-100.00,West,274,17.0,23.0,43,0.00,,,0.00,351.000000,,2013-05-08 01:52:00,
2013-05-07 19:01:00,64.0,41.0,-100.00,West,274,17.0,23.0,43,0.00,,,0.00,351.000000,,2013-05-08 02:01:00,
2013-05-07 19:12:00,64.0,41.0,-100.00,West,274,17.0,23.0,43,0.00,,,0.00,351.000000,,2013-05-08 02:12:00,
2013-05-07 19:21:00,64.0,41.0,-100.00,West,274,17.0,23.0,43,0.00,,,0.00,351.000000,,2013-05-08 02:21:00,
2013-05-07 19:52:00,60.0,40.0,-100.00,West,273,16.0,22.0,48,0.00,,,0.00,163.000000,,2013-05-08 02:52:00,
2013-05-07 20:01:00,60.0,40.0,-100.00,West,273,16.0,22.0,48,0.00,,,0.00,163.000000,,2013-05-08 03:01:00,
2013-05-07 20:11:00,60.0,40.0,-100.00,West,273,16.0,22.0,48,0.00,,,0.00,163.000000,,2013-05-08 03:11:00,
2013-05-07 20:21:00,60.0,40.0,-100.00,West,273,16.0,22.0,48,0.00,,,0.00,163.000000,,2013-05-08 03:21:00,
2013-05-07 20:52:00,56.0,42.0,-100.00,West,260,10.0,19.0,59,0.00,,,0.00,21.000000,,2013-05-08 03:52:00,
2013-05-07 21:02:00,56.0,42.0,-100.00,West,260,10.0,19.0,59,0.00,,,0.00,21.000000,,2013-05-08 04:02:00,
2013-05-07 21:12:00,56.0,42.0,-100.00,West,260,10.0,19.0,59,0.00,,,0.00,21.000000,,2013-05-08 04:12:00,
2013-05-07 21:22:00,56.0,42.0,-100.00,West,260,10.0,19.0,59,0.00,,,0.00,21.000000,,2013-05-08 04:22:00,
2013-05-07 21:53:00,55.0,45.0,-100.00,West,263,10.0,16.0,68,0.00,,,0.00,0.000000,,2013-05-08 04:53:00,
2013-05-07 22:02:00,55.0,45.0,-100.00,West,263,10.0,16.0,68,0.00,,,0.00,0.000000,,2013-05-08 05:02:00,
2013-05-07 22:12:00,55.0,45.0,-100.00,West,263,10.0,16.0,68,0.00,,,0.00,0.000000,,2013-05-08 05:12:00,
2013-05-07 22:22:00,55.0,45.0,-100.00,West,263,10.0,16.0,68,0.00,,,0.00,0.000000,,2013-05-08 05:22:00,
2013-05-07 22:52:00,55.0,48.0,-100.00,West,260,9.0,14.0,76,0.00,,,0.00,0.000000,,2013-05-08 05:52:00,
2013-05-07 23:01:00,55.0,48.0,-100.00,West,260,9.0,14.0,76,0.00,,,0.00,0.000000,,2013-05-08 06:01:00,
2013-05-07 23:12:00,55.0,48.0,-100.00,West,260,9.0,14.0,76,0.00,,,0.00,0.000000,,2013-05-08 06:12:00,
2013-05-07 23:21:00,55.0,48.0,-100.00,West,260,9.0,14.0,76,0.00,,,0.00,0.000000,,2013-05-08 06:21:00,
2013-05-07 23:52:00,54.0,42.0,-100.00,WSW,241,8.0,17.0,63,0.00,,,0.00,0.000000,,2013-05-08 06:52:00,